Location: Bremen
(53.0793°N, 8.8017°E)
Time: 08:39:56
(UTC+01:00)

Transit 2A - Pass Details

Date: 03 December 2021
Orbit: 591 x 966 km, 66.7° (Epoch: 26 January)

Event Time Altitude Azimuth Distance (km) Brightness Sun altitude
Exits shadow 07:11:41 - 321° (NW) 2,862 8.4 -9.4°
Reaches altitude 10° 07:12:12 10° 323° (NW) 2,696 8.3 -9.4°
Maximum altitude 07:18:06 38° 30° (NNE) 1,448 7.5 -8.6°
Drops below altitude 10° 07:23:58 10° 98° (E) 2,683 10.2 -7.8°
Sets 07:26:41 0° 106° (ESE) 3,598 11.5 -7.4°
